FW3611 Weather Reports


Display with metric or nautical units.
time (UTC)temp
F
wind
direction
speed
MPH
gust
MPH
rain 1hr
in
rain 24hr
in
rain mn
in
humidity
%
barometer
mb
20260509201123 69 221 2.0 6.0 0.01 0.49 0.37 94 1013.5
20260509200621 69 286 2.0 4.0 0.01 0.49 0.37 94 1013.5
20260509200122 69 286 2.0 4.0 0.01 0.49 0.37 94 1013.5
20260509195620 69 288 1.0 4.0 0.01 0.49 0.37 94 1013.4
20260509195120 69 288 2.0 4.0 0.01 0.49 0.37 94 1013.6
20260509194120 69 288 2.0 3.0 0.01 0.49 0.37 94 1013.6
20260509193113 69 291 1.0 3.0 0.01 0.49 0.37 94 1013.9
20260509192613 69 291 1.0 3.0 0.02 0.49 0.37 94 1014.0
20260509192111 69 291 1.0 5.0 0.01 0.48 0.36 94 1014.1
20260509191611 69 291 2.0 5.0 0.01 0.48 0.36 94 1014.1
20260509191113 69 291 3.0 8.0 0.02 0.48 0.36 94 1014.2
20260509190612 69 293 3.0 9.0 0.02 0.48 0.36 95 1014.3
20260509185612 69 257 3.0 7.0 0.03 0.48 0.36 94 1014.3
20260509185106 69 233 3.0 7.0 0.03 0.48 0.36 94 1014.2
20260509184105 69 198 2.0 5.0 0.04 0.48 0.36 95 1013.8
20260509183104 69 198 2.0 5.0 0.04 0.48 0.36 94 1013.7
20260509182606 69 197 3.0 6.0 0.04 0.47 0.35 95 1013.7
20260509181603 69 167 3.0 6.0 0.06 0.47 0.34 94 1013.7
20260509181104 69 244 3.0 6.0 0.06 0.46 0.34 94 1013.8
20260509180601 69 259 2.0 4.0 0.06 0.46 0.34 94 1013.7
20260509180110 69 259 1.0 4.0 0.06 0.45 0.33 94 1013.6
20260509175607 69 259 1.0 4.0 0.07 0.45 0.33 94 1013.8
20260509175105 69 266 1.0 4.0 0.09 0.45 0.33 94 1013.9
20260509174609 69 266 1.0 4.0 0.10 0.44 0.32 94 1014.0
20260509174105 69 266 0.0 2.0 0.13 0.44 0.32 94 1014.0
20260509173605 68 266 0.0 0.0 0.16 0.44 0.32 94 1014.3
20260509173102 68 266 0.0 1.0 0.17 0.44 0.32 94 1014.6
20260509171606 68 271 1.0 3.0 0.20 0.41 0.29 94 1014.8
20260509171104 68 272 2.0 7.0 0.21 0.40 0.28 93 1015.0
20260509170115 68 265 3.0 7.0 0.23 0.39 0.27 93 1015.2
20260509165603 68 268 3.0 6.0 0.23 0.38 0.26 93 1015.2
20260509165104 69 264 3.0 7.0 0.22 0.36 0.23 93 1015.2
20260509164601 69 251 3.0 7.0 0.21 0.34 0.21 93 1015.1
20260509164101 69 234 3.0 5.0 0.18 0.31 0.19 93 1015.1
20260509163602 69 239 2.0 6.0 0.15 0.28 0.16 92 1015.2
20260509163059 69 218 3.0 6.0 0.14 0.27 0.14 92 1015.3
20260509162552 69 214 3.0 6.0 0.12 0.25 0.13 92 1015.4
20260509162045 70 203 2.0 6.0 0.11 0.24 0.11 91 1015.3
20260509161543 70 281 2.0 4.0 0.08 0.21 0.09 91 1015.2
20260509161040 70 281 2.0 4.0 0.06 0.19 0.06 90 1015.2
20260509160038 71 293 2.0 5.0 0.03 0.16 0.03 88 1015.0
20260509155045 72 293 1.0 3.0 0.01 0.14 0.01 86 1014.6
20260509154048 72 293 2.0 4.0 0.00 0.13 0.01 85 1014.8
20260509153035 72 293 3.0 8.0 0.00 0.13 0.01 84 1014.3
20260509152534 72 309 3.0 8.0 0.00 0.13 0.01 84 1014.4
20260509151530 71 264 2.0 6.0 0.00 0.13 0.01 88 1014.7
20260509151031 71 271 3.0 6.0 0.00 0.13 0.01 90 1014.9
20260509150530 70 292 3.0 6.0 0.00 0.13 0.01 92 1014.9
20260509150022 70 239 2.0 5.0 0.00 0.13 0.01 93 1014.7
20260509145519 70 270 2.0 4.0 0.00 0.13 0.01 94 1014.7
20260509144518 69 272 1.0 3.0 0.00 0.13 0.01 94 1014.7
20260509144015 69 272 1.0 6.0 0.00 0.13 0.01 94 1014.9
20260509143523 69 273 1.0 6.0 0.00 0.13 0.01 95 1015.0
20260509143019 69 274 1.0 2.0 0.00 0.13 0.01 95 1014.9
20260509142518 69 274 1.0 2.0 0.00 0.13 0.01 95 1014.9
20260509140507 68 274 1.0 2.0 0.00 0.13 0.01 95 1014.8
20260509140005 68 274 1.0 4.0 0.00 0.13 0.01 96 1014.9
20260509135507 68 274 1.0 4.0 0.00 0.13 0.01 96 1014.9
20260509134502 68 281 1.0 2.0 0.00 0.13 0.01 96 1014.8
20260509134004 67 281 2.0 5.0 0.00 0.13 0.01 96 1014.9
20260509133500 67 281 2.0 5.0 0.00 0.13 0.01 96 1015.0
20260509132955 67 298 2.0 5.0 0.00 0.13 0.01 96 1014.9
20260509132454 67 298 2.0 6.0 0.00 0.13 0.01 96 1015.0
20260509131953 67 260 1.0 6.0 0.00 0.13 0.01 96 1015.0
20260509131453 67 131 1.0 3.0 0.00 0.13 0.01 96 1014.8
20260509130951 67 129 0.0 0.0 0.00 0.13 0.01 96 1014.8
20260509130450 67 129 0.0 0.0 0.00 0.13 0.01 96 1014.8
20260509125951 67 129 0.0 2.0 0.00 0.13 0.01 96 1014.6
20260509125447 67 129 1.0 3.0 0.00 0.13 0.01 96 1014.6
20260509124948 66 129 1.0 3.0 0.00 0.13 0.01 96 1014.5
20260509124447 66 129 0.0 3.0 0.00 0.13 0.01 96 1014.6
20260509122947 66 129 2.0 3.0 0.01 0.13 0.01 96 1014.2
20260509122444 66 129 2.0 3.0 0.01 0.13 0.01 96 1014.2
20260509121939 66 129 1.0 3.0 0.01 0.13 0.01 96 1014.2
20260509121440 66 129 1.0 2.0 0.01 0.13 0.01 96 1014.2
20260509120937 66 128 0.0 2.0 0.01 0.13 0.01 96 1014.3
20260509120433 65 128 0.0 1.0 0.01 0.13 0.01 96 1014.1
20260509115433 65 129 0.0 1.0 0.01 0.13 0.01 96 1013.8
20260509114931 65 129 0.0 2.0 0.01 0.13 0.01 96 1013.8
20260509114432 65 129 1.0 2.0 0.01 0.13 0.01 96 1013.8
20260509113932 65 129 0.0 2.0 0.01 0.13 0.00 96 1013.8
20260509113431 65 129 0.0 1.0 0.00 0.12 0.00 96 1013.9
20260509112931 65 129 0.0 1.0 0.00 0.12 0.00 96 1013.8
20260509112429 65 129 0.0 1.0 0.00 0.12 0.00 96 1013.8
20260509111929 65 129 0.0 1.0 0.00 0.12 0.00 96 1013.7
20260509111429 65 129 0.0 0.0 0.00 0.12 0.00 96 1013.6
20260509105928 65 129 0.0 2.0 0.00 0.12 0.00 96 1013.5
20260509105434 65 129 0.0 2.0 0.00 0.12 0.00 96 1013.5
20260509104926 65 129 0.0 0.0 0.00 0.12 0.00 96 1013.3
20260509104424 65 129 0.0 0.0 0.00 0.12 0.00 95 1013.3
20260509103921 65 129 0.0 0.0 0.00 0.12 0.00 95 1013.2
20260509103419 65 129 0.0 0.0 0.00 0.12 0.00 95 1013.0
20260509102917 65 129 0.0 2.0 0.00 0.12 0.00 95 1013.1
20260509102421 65 129 0.0 2.0 0.00 0.12 0.00 95 1013.1
20260509101916 65 129 0.0 1.0 0.00 0.12 0.00 95 1012.9
20260509100915 65 129 0.0 0.0 0.00 0.12 0.00 95 1012.8
20260509100415 65 129 0.0 0.0 0.00 0.12 0.00 95 1012.7
20260509095914 65 129 0.0 1.0 0.00 0.12 0.00 95 1012.6
20260509095415 65 129 0.0 2.0 0.00 0.12 0.00 95 1012.6
20260509094916 65 129 1.0 2.0 0.00 0.12 0.00 95 1012.6
20260509094417 65 129 0.0 2.0 0.00 0.12 0.00 95 1012.7
20260509093920 65 129 0.0 2.0 0.00 0.12 0.00 95 1012.6
20260509093421 65 129 0.0 2.0 0.00 0.12 0.00 95 1012.6
20260509092916 65 129 0.0 2.0 0.00 0.12 0.00 95 1012.5
20260509091934 65 129 0.0 0.0 0.00 0.12 0.00 95 1012.5
20260509090909 65 129 0.0 2.0 0.00 0.12 0.00 95 1012.9
20260509090407 65 129 0.0 2.0 0.00 0.12 0.00 95 1013.0
20260509085907 65 129 1.0 4.0 0.00 0.12 0.00 95 1012.8
20260509085405 65 129 2.0 4.0 0.00 0.12 0.00 95 1012.6
20260509084904 65 129 2.0 3.0 0.00 0.12 0.00 95 1012.4
20260509084402 65 129 1.0 3.0 0.00 0.12 0.00 95 1012.6
20260509083903 65 129 1.0 3.0 0.00 0.12 0.00 95 1012.8
20260509083405 65 129 1.0 3.0 0.00 0.12 0.00 95 1012.8
20260509082903 65 129 1.0 3.0 0.00 0.12 0.00 95 1012.7
20260509082405 65 129 1.0 3.0 0.00 0.12 0.00 95 1012.7
20260509081358 66 133 0.0 3.0 0.00 0.12 0.00 95 1012.3
20260509080857 66 133 1.0 3.0 0.00 0.12 0.00 95 1012.5
20260509080358 66 133 1.0 4.0 0.00 0.12 0.00 95 1012.5
20260509075856 66 133 1.0 4.0 0.00 0.12 0.00 95 1012.6
20260509075357 66 7 1.0 3.0 0.00 0.12 0.00 95 1012.5
20260509074356 66 5 1.0 2.0 0.00 0.12 0.00 95 1012.5
20260509073857 66 4 0.0 2.0 0.00 0.12 0.00 95 1013.0
20260509073359 66 4 0.0 2.0 0.00 0.12 0.00 95 1013.4
20260509072356 66 4 0.0 1.0 0.00 0.12 0.00 95 1013.6
20260509071854 66 4 1.0 3.0 0.00 0.12 0.00 95 1013.8
20260509071354 66 4 2.0 4.0 0.00 0.12 0.00 95 1013.9
20260509065855 66 4 3.0 6.0 0.00 0.12 0.00 95 1013.9
20260509064850 66 346 2.0 4.0 0.00 0.12 0.00 95 1013.5
20260509063846 66 346 1.0 4.0 0.00 0.12 0.00 95 1013.5
20260509063346 66 346 1.0 4.0 0.00 0.12 0.00 95 1013.6
20260509062844 66 346 3.0 5.0 0.00 0.12 0.00 94 1013.6
20260509062345 66 335 2.0 5.0 0.00 0.12 0.00 94 1013.6
20260509061340 66 335 3.0 5.0 0.00 0.12 0.00 94 1013.4
20260509060838 66 335 2.0 5.0 0.00 0.12 0.00 94 1013.7
20260509060339 66 241 0.0 3.0 0.00 0.12 0.00 94 1013.6
20260509055841 66 205 0.0 2.0 0.00 0.12 0.00 94 1013.5
20260509055342 66 205 0.0 2.0 0.00 0.12 0.00 94 1013.6
20260509054840 66 205 1.0 2.0 0.00 0.12 0.00 94 1013.7
20260509054332 66 205 1.0 2.0 0.00 0.12 0.00 94 1013.9
20260509053833 66 205 0.0 2.0 0.00 0.12 0.00 94 1013.7
20260509053330 66 205 1.0 2.0 0.00 0.12 0.00 94 1013.8
20260509052317 66 205 1.0 2.0 0.00 0.12 0.00 94 1013.8
20260509051813 66 205 1.0 3.0 0.00 0.12 0.00 94 1014.1
20260509050308 66 165 1.0 5.0 0.00 0.12 0.00 94 1013.9
20260509045806 66 165 1.0 5.0 0.00 0.12 0.00 94 1013.9
20260509045306 66 164 1.0 5.0 0.00 0.12 0.00 94 1013.8
20260509043811 66 174 1.0 3.0 0.00 0.12 0.00 94 1014.2
20260509042805 66 175 1.0 5.0 0.00 0.12 0.00 94 1014.7
20260509041816 66 187 0.0 2.0 0.00 0.12 0.00 94 1014.6
20260509041302 66 187 0.0 2.0 0.00 0.12 0.00 94 1015.1
20260509040804 66 187 1.0 2.0 0.00 0.12 0.00 94 1015.2
20260509040300 66 187 1.0 2.0 0.00 0.12 0.00 94 1015.2
20260509035750 66 187 1.0 4.0 0.00 0.12 0.12 94 1015.2
20260509035246 66 187 1.0 4.0 0.00 0.12 0.12 93 1015.1
20260509034749 66 190 0.0 2.0 0.00 0.12 0.12 93 1015.1
20260509034246 66 190 0.0 1.0 0.00 0.12 0.12 93 1015.2
20260509033248 66 190 1.0 4.0 0.01 0.12 0.12 93 1015.3
20260509032247 66 201 2.0 5.0 0.01 0.12 0.12 93 1015.2
20260509031747 66 226 2.0 6.0 0.01 0.12 0.12 93 1015.0
20260509031247 67 160 2.0 6.0 0.01 0.12 0.12 93 1015.1
20260509030746 67 120 2.0 5.0 0.02 0.12 0.12 93 1015.2
20260509030247 67 180 2.0 7.0 0.02 0.12 0.12 93 1015.3
20260509025748 67 134 2.0 7.0 0.03 0.12 0.12 93 1015.4
20260509025252 67 123 2.0 6.0 0.03 0.12 0.12 93 1015.3
20260509024748 67 129 1.0 4.0 0.03 0.12 0.12 93 1015.3
20260509023750 67 156 1.0 6.0 0.03 0.12 0.12 93 1015.9
20260509023249 67 165 1.0 5.0 0.03 0.11 0.11 93 1016.0
20260509022746 67 202 1.0 4.0 0.03 0.11 0.11 93 1016.3
20260509022248 67 207 1.0 4.0 0.04 0.11 0.11 93 1016.3
20260509021748 67 208 1.0 3.0 0.04 0.11 0.11 93 1016.2
20260509021246 67 208 1.0 4.0 0.04 0.11 0.11 92 1016.3
20260509020747 67 208 1.0 4.0 0.04 0.10 0.10 92 1016.2
20260509020251 67 210 1.0 3.0 0.05 0.10 0.10 92 1016.0
20260509015251 67 210 1.0 2.0 0.06 0.09 0.09 92 1016.1
20260509014248 68 210 1.0 3.0 0.07 0.09 0.09 92 1016.2
20260509013744 68 210 0.0 2.0 0.08 0.09 0.08 91 1016.0
20260509013247 68 210 1.0 2.0 0.07 0.08 0.08 91 1015.6
20260509012746 68 210 1.0 2.0 0.08 0.08 0.08 91 1015.5
20260509011743 69 210 0.0 2.0 0.07 0.07 0.07 90 1016.0
20260509011254 69 210 0.0 2.0 0.07 0.07 0.06 90 1016.1
20260509010742 69 210 0.0 0.0 0.06 0.06 0.06 89 1016.2
20260509010240 69 210 0.0 0.0 0.05 0.05 0.05 89 1016.3
20260509005745 69 210 0.0 0.0 0.04 0.04 0.03 88 1016.4
20260509005238 69 210 0.0 1.0 0.03 0.03 0.03 87 1016.4
20260509004732 69 210 1.0 3.0 0.02 0.02 0.02 87 1016.4
20260509004231 70 210 1.0 3.0 0.02 0.02 0.02 87 1016.4
20260509003728 70 211 0.0 3.0 0.01 0.01 0.01 86 1016.3
20260509002722 71 143 0.0 0.0 0.00 0.00 0.00 87 1015.8
20260509002218 71 142 0.0 0.0 0.00 0.00 0.00 87 1015.5
20260509001716 71 142 0.0 0.0 0.00 0.00 0.00 86 1015.3
20260509001217 71 142 0.0 0.0 0.00 0.00 0.00 85 1015.4
20260509000726 71 142 0.0 0.0 0.00 0.00 0.00 86 1015.3
20260509000212 71 142 0.0 0.0 0.00 0.00 0.00 86 1015.4
20260508235220 72 142 0.0 1.0 0.00 0.00 0.00 84 1015.3
20260508234722 72 142 0.0 1.0 0.00 0.00 0.00 84 1015.3
20260508234215 72 142 1.0 2.0 0.00 0.00 0.00 84 1015.2
20260508233208 73 126 0.0 1.0 0.00 0.00 0.00 82 1014.7
20260508232707 73 126 0.0 2.0 0.00 0.00 0.00 82 1014.6
20260508232205 73 126 0.0 2.0 0.00 0.00 0.00 81 1014.4
20260508231704 74 126 0.0 0.0 0.00 0.00 0.00 79 1014.3
20260508231205 74 126 0.0 0.0 0.00 0.00 0.00 79 1014.4
20260508230705 74 126 0.0 0.0 0.00 0.00 0.00 77 1014.2
20260508230201 74 126 0.0 0.0 0.00 0.00 0.00 76 1014.1
20260508225707 74 126 0.0 2.0 0.00 0.00 0.00 76 1014.0
20260508225204 74 126 1.0 2.0 0.00 0.00 0.00 75 1014.1
20260508224703 74 126 1.0 2.0 0.00 0.00 0.00 75 1014.1
20260508224201 75 126 1.0 2.0 0.00 0.00 0.00 74 1014.1
20260508223659 75 126 1.0 2.0 0.00 0.00 0.00 73 1014.0
20260508223200 75 126 1.0 2.0 0.00 0.00 0.00 73 1013.8
20260508222200 75 126 1.0 2.0 0.00 0.00 0.00 72 1013.7
20260508221658 75 126 1.0 3.0 0.00 0.00 0.00 72 1013.6
20260508221157 75 126 2.0 3.0 0.00 0.00 0.00 72 1013.7
20260508220652 75 126 1.0 3.0 0.00 0.00 0.00 71 1013.7
20260508220146 75 126 1.0 3.0 0.00 0.00 0.00 72 1013.7
20260508215646 76 126 1.0 3.0 0.00 0.00 0.00 69 1013.6
20260508215146 76 126 1.0 3.0 0.00 0.00 0.00 68 1013.6
20260508214647 76 133 0.0 2.0 0.00 0.00 0.00 70 1013.5
20260508214148 76 133 1.0 3.0 0.00 0.00 0.00 69 1013.5
20260508213650 76 133 1.0 3.0 0.00 0.00 0.00 70 1013.6
20260508213151 76 132 1.0 4.0 0.00 0.00 0.00 69 1013.6
20260508212649 76 132 1.0 4.0 0.00 0.00 0.00 70 1013.6
20260508212146 76 81 1.0 6.0 0.00 0.00 0.00 69 1013.6
20260508211646 76 81 1.0 6.0 0.00 0.00 0.00 68 1013.5
20260508211144 76 98 1.0 3.0 0.00 0.00 0.00 67 1013.6
20260508210646 76 96 1.0 3.0 0.00 0.00 0.00 68 1013.9
20260508210144 76 96 1.0 4.0 0.00 0.00 0.00 68 1014.0
20260508205645 76 96 1.0 4.0 0.00 0.00 0.00 68 1014.0
20260508205139 76 96 1.0 3.0 0.00 0.00 0.00 68 1014.2
20260508204633 76 96 1.0 3.0 0.00 0.00 0.00 68 1014.2
20260508204133 75 96 1.0 4.0 0.00 0.00 0.00 67 1014.3
20260508203630 76 96 1.0 4.0 0.00 0.00 0.00 67 1014.5
20260508203132 76 98 1.0 4.0 0.00 0.00 0.00 66 1014.6
20260508202631 76 104 1.0 2.0 0.00 0.00 0.00 65 1014.7
20260508202130 76 104 1.0 2.0 0.00 0.00 0.00 66 1014.7
20260508201630 76 104 1.0 2.0 0.00 0.00 0.00 65 1014.8